Stations météo

réclame
Mon MeteoGroup
St. Mary's, Grande-Bretagne (3803): Température de l'air & dewpoint: 22.05.2018 06:00:00 - 28.05.2018 06:00:00 (BST)St. Mary's, Grande-Bretagne (3803): Température de l'air -20cm: 22.05.2018 06:00:00 - 28.05.2018 06:00:00 (BST)St. Mary's, Grande-Bretagne (3803): Vitesse du vent & gusts: 22.05.2018 06:00:00 - 28.05.2018 06:00:00 (BST)St. Mary's, Grande-Bretagne (3803): Direction du vent: 22.05.2018 06:00:00 - 28.05.2018 06:00:00 (BST)St. Mary's, Grande-Bretagne (3803): reduced air pressure: 22.05.2018 06:00:00 - 28.05.2018 06:00:00 (BST)St. Mary's, Grande-Bretagne (3803): visibility: 22.05.2018 06:00:00 - 28.05.2018 06:00:00 (BST)St. Mary's, Grande-Bretagne (3803): Quantités de précipitations: 22.05.2018 06:00:00 - 28.05.2018 06:00:00 (BST)
Date & Time tt [°C] td [°C] tt -20cm [°C] ff [km/h] ff [knt] fx [km/h] fx [knt] dd ppp [hPa] vv [km] rr [mm]
28.05.2018 06:00:00 13,6 12,5 - 9 5 - - E 1017,9 13 0,0
28.05.2018 05:00:00 13,7 12,6 - 13 7 - - SE 1017,2 12 0,0
28.05.2018 04:00:00 13,9 12,0 - 13 7 - - SE 1016,9 23 0,0
28.05.2018 03:00:00 14,0 12,0 - 21 11 - - SE 1016,8 27 0,0
28.05.2018 02:00:00 13,8 12,6 - 18 10 - - SE 1017,0 11 0,0
28.05.2018 01:00:00 13,9 12,2 - 16 9 - - ESE 1017,1 18 0,0
28.05.2018 00:00:00 13,8 12,1 - 16 9 - - SE 1016,8 20 0,0
27.05.2018 23:00:00 14,1 12,1 - 18 10 - - SSE 1016,4 24 0,0
27.05.2018 22:00:00 14,0 12,3 - 16 9 - - SSE 1015,9 23 0,0
27.05.2018 21:00:00 14,0 12,5 - 22 12 - - SSE 1014,7 14 0,0
27.05.2018 20:00:00 14,3 13,0 - 24 13 - - S 1014,3 12 0,0
27.05.2018 19:00:00 14,5 13,8 - 22 12 - - SSE 1014,1 7 0,0
27.05.2018 18:00:00 14,7 13,8 - 24 13 - - SE 1014,0 9 0,0
27.05.2018 17:00:00 14,9 13,9 - 26 14 - - SSE 1013,9 8 0,0
27.05.2018 16:00:00 15,4 14,2 - 26 14 - - SSE 1013,5 6 0,0
27.05.2018 15:00:00 15,4 14,1 - 24 13 - - SE 1013,4 8 0,0
27.05.2018 14:00:00 15,5 14,6 - 24 13 - - SE 1013,2 10 0,0
27.05.2018 13:00:00 14,4 13,9 - 24 13 - - SE 1012,9 7 0,0
27.05.2018 12:00:00 14,2 13,9 - 24 13 - - SE 1012,5 5 0,0
27.05.2018 11:00:00 13,9 13,7 - 18 10 - - ESE 1012,4 3,1 0,0
27.05.2018 10:00:00 14,0 13,7 15,7 18 10 - - ESE 1011,8 3,0 0,0
27.05.2018 09:00:00 13,8 13,5 - 16 9 - - ESE 1011,6 2,4 0,0
27.05.2018 08:00:00 14,0 13,9 - 18 10 - - SE 1011,3 4,6 0,0
27.05.2018 07:00:00 13,9 13,8 - 28 15 - - SSE 1010,8 0,6 0,0
27.05.2018 06:00:00 14,0 13,7 - 29 16 - - SE 1010,6 0,4 0,0
27.05.2018 05:00:00 14,0 13,7 - 28 15 - - SSE 1009,8 1,8 0,2
27.05.2018 04:00:00 14,1 13,7 - 13 7 - - ESE 1010,1 1,5 0,0
27.05.2018 03:00:00 14,1 13,6 - 22 12 52 28 ESE 1010,6 1,8 0,0
27.05.2018 02:00:00 14,1 13,7 - 34 18 - - E 1011,5 2,6 0,0
27.05.2018 01:00:00 13,7 13,4 - 16 9 - - E 1011,5 2,2 0,0
27.05.2018 00:00:00 13,6 13,2 - 21 11 - - NE 1011,7 2,4 0,0
26.05.2018 23:00:00 13,9 13,5 - 31 17 46 25 NNE 1012,2 2,8 0,0
26.05.2018 22:00:00 14,2 13,9 - 26 14 - - NNE 1012,8 3,0 0,0
26.05.2018 21:00:00 13,8 13,6 - 31 17 46 25 NNE 1012,6 2,7 0,2
26.05.2018 20:00:00 13,9 13,6 - 29 16 - - N 1013,2 2,6 3,0
26.05.2018 19:00:00 13,7 13,0 - 29 16 - - NNE 1014,5 4,1 0,2
26.05.2018 18:00:00 14,6 12,9 - 28 15 - - NNE 1015,3 8 0,0
26.05.2018 17:00:00 14,8 13,1 - 28 15 - - NNE 1016,1 5 0,0
26.05.2018 16:00:00 15,2 13,1 - 28 15 - - NNE 1016,1 6 0,0
26.05.2018 15:00:00 16,6 14,0 - 24 13 - - NNE 1016,8 7 0,0
26.05.2018 14:00:00 16,3 13,9 - 24 13 - - NNE 1017,3 4,5 0,0
26.05.2018 13:00:00 16,1 13,8 - 18 10 - - NE 1017,9 6 0,0
26.05.2018 12:00:00 16,3 13,6 - 21 11 - - NE 1018,0 6 0,0
26.05.2018 11:00:00 15,6 13,7 - 21 11 - - NE 1018,0 5 0,0
26.05.2018 10:00:00 15,1 13,8 15,7 21 11 - - NE 1017,9 4,5 0,0
26.05.2018 09:00:00 14,1 13,5 - 21 11 - - NE 1017,8 4,2 0,0
26.05.2018 08:00:00 13,6 13,3 - 18 10 - - ENE 1017,8 4,2 0,0
26.05.2018 07:00:00 13,1 12,9 - 15 8 - - NE 1017,9 5 0,4
26.05.2018 06:00:00 12,6 12,4 - 16 9 - - NE 1017,6 3,3 0,8
26.05.2018 05:00:00 12,5 12,2 - 13 7 - - NNE 1017,6 4,6 0,0
26.05.2018 04:00:00 12,5 12,2 - 13 7 - - NNE 1017,9 6 0,0
26.05.2018 03:00:00 12,5 12,1 - 16 9 - - NNE 1018,2 5 0,2
26.05.2018 02:00:00 12,6 11,8 - 16 9 - - N 1018,5 9 0,0
26.05.2018 01:00:00 12,7 11,6 - 16 9 - - N 1018,8 14 0,0
26.05.2018 00:00:00 12,9 11,7 - 15 8 - - N 1019,2 15 0,0
25.05.2018 23:00:00 13,2 11,4 - 15 8 - - N 1019,5 22 0,0
25.05.2018 22:00:00 12,8 11,8 - 18 10 - - N 1019,7 13 0,0
25.05.2018 21:00:00 13,0 12,0 - 18 10 - - N 1019,2 13 0,0
25.05.2018 20:00:00 13,2 12,4 - 22 12 - - N 1019,2 11 0,0
25.05.2018 19:00:00 13,1 12,3 - 22 12 - - N 1019,0 10 0,2
25.05.2018 18:00:00 13,2 12,3 - 24 13 - - N 1018,9 8 0,0
25.05.2018 17:00:00 13,7 12,2 - 29 16 - - N 1019,0 8 0,0
25.05.2018 16:00:00 15,9 13,2 - 26 14 - - N 1019,1 8 0,0
25.05.2018 15:00:00 15,1 12,4 - 21 11 - - N 1019,3 8 0,0
25.05.2018 14:00:00 15,0 12,8 - 22 12 - - NNE 1019,1 9 0,0
25.05.2018 13:00:00 15,1 12,8 - 18 10 - - NNE 1019,3 8 0,0
25.05.2018 12:00:00 15,6 13,7 - 21 11 - - N 1019,1 4,5 0,0
25.05.2018 11:00:00 14,1 13,3 - 18 10 - - N 1019,3 4,5 0,0
25.05.2018 10:00:00 12,9 12,6 16,0 21 11 - - N 1019,6 4,0 0,2
25.05.2018 09:00:00 12,6 12,5 - 21 11 - - NNE 1019,6 2,0 0,0
25.05.2018 08:00:00 12,7 12,5 - 21 11 - - NNE 1019,2 1,5 0,2
25.05.2018 07:00:00 12,6 12,4 - 15 8 - - NNE 1019,0 1,6 0,4
25.05.2018 06:00:00 12,5 12,1 - 16 9 - - N 1018,9 3,1 0,0
25.05.2018 05:00:00 12,5 11,9 - 15 8 - - N 1019,0 5 0,0
25.05.2018 04:00:00 12,5 11,9 - 15 8 - - N 1019,2 7 0,0
25.05.2018 03:00:00 12,5 11,9 - 11 6 - - N 1019,3 6 0,0
25.05.2018 02:00:00 12,3 11,7 - 11 6 - - N 1019,7 6 0,0
25.05.2018 01:00:00 12,4 11,9 - 13 7 - - N 1019,8 5 0,0
25.05.2018 00:00:00 12,7 12,1 - 11 6 - - N 1020,0 5 0,0
24.05.2018 23:00:00 12,8 12,3 - 11 6 - - N 1020,0 4,9 0,0
24.05.2018 22:00:00 13,0 12,1 - 5 3 - - N 1020,0 7 0,0
24.05.2018 21:00:00 13,6 12,5 - 9 5 - - WNW 1019,7 6 0,0
24.05.2018 20:00:00 14,4 12,5 - 5 3 - - SSW 1019,4 6 0,0
24.05.2018 19:00:00 15,1 12,7 - 4 2 - - SE 1019,3 8 0,0
24.05.2018 18:00:00 15,1 13,0 - 5 3 - - S 1019,5 4,5 0,0
24.05.2018 17:00:00 15,4 12,9 - 8 4 - - S 1019,5 4,5 0,0
24.05.2018 16:00:00 15,4 13,3 - 9 5 - - SE 1019,6 5 0,0
24.05.2018 15:00:00 15,2 12,8 - 8 4 - - SSE 1019,9 5 0,0
24.05.2018 14:00:00 16,0 14,0 - 11 6 - - SSE 1020,1 5 0,0
24.05.2018 13:00:00 15,6 13,3 - 9 5 - - ESE 1020,2 5 0,0
24.05.2018 12:00:00 15,6 13,1 - 11 6 - - ESE 1020,1 5 0,0
24.05.2018 11:00:00 14,9 13,1 - 11 6 - - E 1020,1 6 0,0
24.05.2018 10:00:00 16,0 13,1 15,7 13 7 - - ENE 1020,0 8 0,0
24.05.2018 09:00:00 14,7 13,0 - 15 8 - - ENE 1020,2 8 0,0
24.05.2018 08:00:00 13,0 12,0 - 13 7 - - NNE 1020,0 8 0,0
24.05.2018 07:00:00 12,4 11,6 - 13 7 - - NE 1019,8 9 0,0
24.05.2018 06:00:00 12,0 11,4 - 13 7 - - NNE 1019,9 8 0,0
24.05.2018 05:00:00 11,5 11,0 - 11 6 - - N 1020,0 6 0,0
24.05.2018 04:00:00 11,6 11,1 - 15 8 - - N 1020,6 6 0,0
24.05.2018 03:00:00 11,8 11,2 - 18 10 - - N 1020,9 7 0,0
24.05.2018 02:00:00 11,9 11,2 - 15 8 - - N 1021,4 8 0,0
24.05.2018 01:00:00 11,4 10,5 - 8 4 - - N 1021,8 5 0,0
24.05.2018 00:00:00 12,1 11,2 - 13 7 - - N 1022,0 7 0,0
23.05.2018 23:00:00 12,0 11,2 - 15 8 - - NNE 1022,0 7 0,0
23.05.2018 22:00:00 12,0 10,9 - 13 7 - - NNE 1022,3 8 0,0
23.05.2018 21:00:00 13,0 11,5 - 11 6 - - NNE 1022,0 9 0,0
23.05.2018 20:00:00 14,6 11,4 - 9 5 - - NNE 1022,0 16 0,0
23.05.2018 19:00:00 15,0 11,5 - 9 5 - - NE 1022,1 15 0,0
23.05.2018 18:00:00 15,6 11,5 - 11 6 - - E 1022,2 10 0,0
23.05.2018 17:00:00 15,8 11,2 - 9 5 - - E 1022,5 25 0,0
23.05.2018 16:00:00 16,1 12,4 - 9 5 - - E 1022,9 10 0,0
23.05.2018 15:00:00 15,6 10,6 - 9 5 - - E 1023,0 10 0,0
23.05.2018 14:00:00 16,2 11,0 - 11 6 - - E 1023,2 10 0,0
23.05.2018 13:00:00 16,7 10,7 - 13 7 - - E 1023,3 30 0,0
23.05.2018 12:00:00 17,2 12,1 - 11 6 - - ENE 1023,3 10 0,0
23.05.2018 11:00:00 16,8 11,3 - 15 8 - - E 1023,0 10 0,0
23.05.2018 10:00:00 16,9 11,5 14,9 13 7 - - E 1023,0 45 0,0
23.05.2018 09:00:00 15,1 11,9 - 13 7 - - NE 1022,6 10 0,0
23.05.2018 08:00:00 13,8 11,9 - 13 7 - - NE 1022,2 10 0,0
23.05.2018 07:00:00 12,5 11,2 - 15 8 - - NNE 1022,0 17 0,0
23.05.2018 06:00:00 11,6 10,6 - 18 10 - - NNE 1021,5 14 0,0
23.05.2018 05:00:00 11,6 10,4 - 22 12 - - NNE 1021,1 13 0,0
23.05.2018 04:00:00 11,7 10,4 - 21 11 - - NNE 1021,1 15 0,0
23.05.2018 03:00:00 11,6 10,3 - 21 11 - - NNE 1021,3 16 0,0
23.05.2018 02:00:00 11,6 10,4 - 22 12 - - N 1021,5 14 0,0
23.05.2018 01:00:00 11,6 10,4 - 24 13 - - N 1021,6 15 0,0
23.05.2018 00:00:00 11,3 10,6 - 22 12 - - N 1021,7 12 0,0
22.05.2018 23:00:00 11,2 10,5 - 24 13 - - N 1021,6 13 0,0
22.05.2018 22:00:00 11,2 10,5 - 26 14 - - NNE 1021,0 11 0,0
22.05.2018 21:00:00 11,5 10,5 - 29 16 - - NNE 1020,3 12 0,0
22.05.2018 20:00:00 12,1 10,5 - 21 11 - - N 1020,2 14 0,0
22.05.2018 19:00:00 12,3 10,6 - 24 13 - - N 1020,1 15 0,0
22.05.2018 18:00:00 12,8 10,8 - 31 17 - - N 1020,0 16 0,0
22.05.2018 17:00:00 13,0 10,6 - 31 17 - - N 1019,8 10 0,0
22.05.2018 16:00:00 13,5 10,9 - 29 16 - - N 1020,0 10 0,0
22.05.2018 15:00:00 13,1 10,3 - 24 13 - - N 1020,0 10 0,0
22.05.2018 14:00:00 13,2 10,7 - 29 16 - - NNE 1019,6 10 0,0
22.05.2018 13:00:00 13,1 10,6 - 28 15 46 25 NNE 1019,5 10 0,0
22.05.2018 12:00:00 12,8 10,4 - 35 19 46 25 NNE 1019,4 10 0,0
22.05.2018 11:00:00 12,6 10,1 - 37 20 48 26 NNE 1019,0 10 0,0
22.05.2018 10:00:00 11,5 9,7 15,2 39 21 50 27 NNE 1018,7 10 0,0
22.05.2018 09:00:00 11,5 9,8 - 35 19 50 27 N 1018,9 10 0,0
22.05.2018 08:00:00 10,9 9,6 - 35 19 48 26 NNE 1018,6 10 0,0
22.05.2018 07:00:00 10,8 9,4 - 34 18 52 28 NNE 1018,4 14 0,0
22.05.2018 06:00:00 11,1 9,6 - 35 19 48 26 N 1017,9 16 0,0

tt = Température de l'air
td = dewpoint
tt -20cm = Température de l'air -20cm
ff = Vitesse du vent
fx = gusts
dd = Direction du vent
ppp = reduced air pressure
vv = visibility
rr = Quantités de précipitations

stations d'obs. à proximité